EWL472 EDDK-EGKK

Flight info

Callsign EWL472
Flight time 0h 54m
Altitude 32000
Route NVO2R NVO Y868 NAVAK DCT DENUT L610 TEBRA
Aircraft A319/M-SDE3FGHIRWY/LB1

Departure

Time 2026-05-04 20:33
Airport Cologne Bonn Airport (EDDK)

Arrival

Time 2026-05-04 21:27
Airport London Gatwick Airport (EGKK)
Time Latitude Longitude Altitude Speed Heading
2026-05-04 20:13 50.88104 7.12092 232 ft 0 kts 216°
2026-05-04 20:18 50.88115 7.12104 232 ft 2 kts 216°
2026-05-04 20:18 50.88131 7.12123 233 ft 3 kts 216°
2026-05-04 20:18 50.88145 7.12139 233 ft 3 kts 208°
2026-05-04 20:19 50.88162 7.12149 233 ft 2 kts 174°
2026-05-04 20:19 50.88180 7.12140 234 ft 3 kts 140°
2026-05-04 20:19 50.88192 7.12121 236 ft 1 kts 126°
2026-05-04 20:19 50.88195 7.12114 232 ft 0 kts 126°
2026-05-04 20:22 50.88187 7.12131 233 ft 5 kts 126°
2026-05-04 20:22 50.88153 7.12204 232 ft 10 kts 126°
2026-05-04 20:23 50.88106 7.12308 233 ft 13 kts 126°
2026-05-04 20:23 50.88045 7.12431 232 ft 15 kts 133°
2026-05-04 20:23 50.87960 7.12553 232 ft 15 kts 138°
2026-05-04 20:23 50.87874 7.12610 232 ft 14 kts 182°
2026-05-04 20:24 50.87782 7.12682 232 ft 16 kts 137°
2026-05-04 20:24 50.87703 7.12795 232 ft 15 kts 138°
2026-05-04 20:24 50.87626 7.12908 232 ft 15 kts 136°
2026-05-04 20:24 50.87551 7.13015 232 ft 15 kts 137°
2026-05-04 20:25 50.87469 7.13134 232 ft 16 kts 137°
2026-05-04 20:25 50.87379 7.13263 232 ft 19 kts 137°
2026-05-04 20:25 50.87276 7.13412 233 ft 19 kts 137°
2026-05-04 20:25 50.87195 7.13532 236 ft 13 kts 139°
2026-05-04 20:26 50.87126 7.13630 239 ft 14 kts 137°
2026-05-04 20:26 50.87054 7.13735 242 ft 14 kts 137°
2026-05-04 20:26 50.86977 7.13845 245 ft 15 kts 138°
2026-05-04 20:26 50.86906 7.13948 252 ft 13 kts 138°
2026-05-04 20:27 50.86843 7.14039 255 ft 13 kts 137°
2026-05-04 20:27 50.86765 7.14129 255 ft 16 kts 169°
2026-05-04 20:27 50.86677 7.14219 260 ft 15 kts 138°
2026-05-04 20:27 50.86598 7.14333 262 ft 16 kts 137°
2026-05-04 20:28 50.86510 7.14462 265 ft 17 kts 138°
2026-05-04 20:28 50.86423 7.14586 271 ft 17 kts 138°
2026-05-04 20:28 50.86339 7.14710 276 ft 16 kts 137°
2026-05-04 20:28 50.86255 7.14831 280 ft 16 kts 137°
2026-05-04 20:29 50.86172 7.14951 285 ft 16 kts 137°
2026-05-04 20:29 50.86085 7.15077 288 ft 18 kts 137°
2026-05-04 20:29 50.85989 7.15216 293 ft 19 kts 137°
2026-05-04 20:29 50.85888 7.15362 297 ft 20 kts 137°
2026-05-04 20:30 50.85782 7.15515 298 ft 21 kts 137°
2026-05-04 20:30 50.85671 7.15677 302 ft 22 kts 137°
2026-05-04 20:30 50.85556 7.15846 306 ft 23 kts 137°
2026-05-04 20:30 50.85489 7.15972 308 ft 13 kts 96°
2026-05-04 20:31 50.85540 7.16094 310 ft 14 kts 48°
2026-05-04 20:31 50.85610 7.16218 309 ft 16 kts 48°
2026-05-04 20:31 50.85706 7.16298 309 ft 16 kts 329°
2026-05-04 20:31 50.85735 7.16255 307 ft 0 kts 317°
2026-05-04 20:32 50.85737 7.16253 307 ft 5 kts 317°
2026-05-04 20:32 50.85905 7.16012 304 ft 65 kts 318°
2026-05-04 20:32 50.86404 7.15290 284 ft 127 kts 317°
2026-05-04 20:32 50.87185 7.14154 401 ft 163 kts 317°
2026-05-04 20:33 50.88012 7.12947 1134 ft 161 kts 317°
2026-05-04 20:33 50.88836 7.11754 1809 ft 162 kts 317°
2026-05-04 20:33 50.89713 7.10489 2121 ft 184 kts 317°
2026-05-04 20:33 50.90595 7.08866 2469 ft 207 kts 298°
2026-05-04 20:34 50.91060 7.06628 3059 ft 217 kts 272°
2026-05-04 20:34 50.90934 7.04286 4031 ft 212 kts 250°
2026-05-04 20:34 50.90456 7.02006 4732 ft 229 kts 248°
2026-05-04 20:34 50.89916 6.99486 5291 ft 252 kts 249°
2026-05-04 20:35 50.89342 6.96796 6173 ft 261 kts 249°
2026-05-04 20:35 50.88757 6.94044 7138 ft 265 kts 249°
2026-05-04 20:35 50.88165 6.91248 8105 ft 269 kts 249°
2026-05-04 20:35 50.87566 6.88429 9070 ft 273 kts 249°
2026-05-04 20:36 50.86954 6.85566 10016 ft 276 kts 249°
2026-05-04 20:36 50.86324 6.82630 10502 ft 296 kts 249°
2026-05-04 20:36 50.85631 6.79408 10837 ft 318 kts 249°
2026-05-04 20:36 50.84909 6.76048 11487 ft 326 kts 249°
2026-05-04 20:37 50.84175 6.72611 12272 ft 331 kts 249°
2026-05-04 20:37 50.83434 6.69144 13051 ft 335 kts 249°
2026-05-04 20:37 50.82693 6.65616 13817 ft 340 kts 252°
2026-05-04 20:37 50.82303 6.61899 14480 ft 347 kts 265°
2026-05-04 20:38 50.82340 6.58100 15152 ft 351 kts 269°
2026-05-04 20:38 50.82400 6.54211 15801 ft 355 kts 269°
2026-05-04 20:38 50.82453 6.50267 16473 ft 359 kts 269°
2026-05-04 20:38 50.82500 6.46292 17152 ft 363 kts 269°
2026-05-04 20:39 50.82545 6.42282 17841 ft 366 kts 268°
2026-05-04 20:39 50.82589 6.38239 18486 ft 370 kts 268°
2026-05-04 20:39 50.82633 6.34193 19079 ft 373 kts 268°
2026-05-04 20:39 50.82679 6.30076 19685 ft 376 kts 268°
2026-05-04 20:40 50.82723 6.25920 20294 ft 379 kts 268°
2026-05-04 20:40 50.82766 6.21747 20900 ft 382 kts 268°
2026-05-04 20:40 50.82810 6.17536 21487 ft 385 kts 268°
2026-05-04 20:40 50.82853 6.13273 22070 ft 388 kts 268°
2026-05-04 20:41 50.82891 6.08982 22643 ft 392 kts 268°
2026-05-04 20:41 50.82928 6.04647 23134 ft 397 kts 268°
2026-05-04 20:41 50.82954 6.00265 23632 ft 400 kts 267°
2026-05-04 20:41 50.82916 5.95852 24084 ft 403 kts 266°
2026-05-04 20:42 50.83061 5.91405 24557 ft 408 kts 274°
2026-05-04 20:42 50.83654 5.87005 25042 ft 413 kts 282°
2026-05-04 20:42 50.84466 5.82620 25519 ft 415 kts 283°
2026-05-04 20:42 50.85303 5.78236 25989 ft 417 kts 283°
2026-05-04 20:43 50.86154 5.73833 26462 ft 419 kts 283°
2026-05-04 20:43 50.86998 5.69464 26926 ft 420 kts 283°
2026-05-04 20:43 50.87849 5.65028 27388 ft 422 kts 282°
2026-05-04 20:43 50.88699 5.60563 27849 ft 425 kts 283°
2026-05-04 20:44 50.89554 5.56063 28283 ft 427 kts 283°
2026-05-04 20:44 50.90409 5.51538 28715 ft 429 kts 283°
2026-05-04 20:44 50.91265 5.46988 29141 ft 432 kts 283°
2026-05-04 20:44 50.92123 5.42410 29562 ft 434 kts 283°
2026-05-04 20:45 50.92982 5.37809 29967 ft 436 kts 283°
2026-05-04 20:45 50.93842 5.33189 30309 ft 438 kts 283°
2026-05-04 20:45 50.94707 5.28529 30645 ft 440 kts 282°
2026-05-04 20:45 50.95559 5.23916 30969 ft 442 kts 282°
2026-05-04 20:46 50.96428 5.19219 31299 ft 444 kts 282°
2026-05-04 20:46 50.97296 5.14513 31644 ft 445 kts 283°
2026-05-04 20:46 50.98163 5.09802 31913 ft 446 kts 283°
2026-05-04 20:46 50.99025 5.05113 31968 ft 434 kts 283°
2026-05-04 20:47 51.00677 4.96094 31967 ft 422 kts 282°
2026-05-04 20:47 51.02304 4.87156 31973 ft 420 kts 282°
2026-05-04 20:48 51.03920 4.78219 31972 ft 420 kts 282°
2026-05-04 20:48 51.05526 4.69288 31969 ft 420 kts 283°
2026-05-04 20:49 51.07120 4.60400 31968 ft 420 kts 283°
2026-05-04 20:49 51.08723 4.51449 31964 ft 420 kts 283°
2026-05-04 20:50 51.10317 4.42492 31964 ft 420 kts 283°
2026-05-04 20:50 51.11897 4.33539 31963 ft 420 kts 283°
2026-05-04 20:51 51.13459 4.24613 31961 ft 420 kts 283°
2026-05-04 20:51 51.15025 4.15650 31960 ft 420 kts 283°
2026-05-04 20:52 51.16595 4.06670 31969 ft 424 kts 283°
2026-05-04 20:52 51.18199 3.97397 31973 ft 440 kts 283°
2026-05-04 20:53 51.19552 3.89554 31977 ft 443 kts 283°
2026-05-04 20:53 51.21180 3.80050 31989 ft 443 kts 283°
2026-05-04 20:54 51.23061 3.69006 31976 ft 444 kts 283°
2026-05-04 20:54 51.24348 3.61056 31976 ft 444 kts 281°
2026-05-04 20:55 51.25630 3.51424 31974 ft 443 kts 279°
2026-05-04 20:55 51.26814 3.41783 31976 ft 443 kts 279°
2026-05-04 20:56 51.28034 3.32132 31988 ft 443 kts 280°
2026-05-04 20:56 51.29273 3.22509 31998 ft 442 kts 279°
2026-05-04 20:57 51.30514 3.12855 32000 ft 442 kts 279°
2026-05-04 20:57 51.31725 3.03281 32006 ft 442 kts 279°
2026-05-04 20:58 51.32936 2.93638 31978 ft 442 kts 279°
2026-05-04 20:58 51.34138 2.84012 31609 ft 443 kts 279°
2026-05-04 20:59 51.34744 2.79125 30662 ft 449 kts 279°
2026-05-04 20:59 51.35348 2.74246 30112 ft 445 kts 279°
2026-05-04 20:59 51.35946 2.69408 29485 ft 440 kts 279°
2026-05-04 20:59 51.36535 2.64636 28933 ft 434 kts 278°
2026-05-04 21:00 51.37115 2.59941 28379 ft 428 kts 278°
2026-05-04 21:00 51.37686 2.55300 27835 ft 422 kts 279°
2026-05-04 21:00 51.38247 2.50727 27300 ft 416 kts 278°
2026-05-04 21:00 51.38795 2.46259 26785 ft 411 kts 279°
2026-05-04 21:01 51.39339 2.41797 26273 ft 406 kts 279°
2026-05-04 21:01 51.39871 2.37379 25768 ft 401 kts 279°
2026-05-04 21:01 51.40391 2.33023 25282 ft 396 kts 279°
2026-05-04 21:01 51.40907 2.28713 24819 ft 392 kts 278°
2026-05-04 21:02 51.41416 2.24439 24372 ft 389 kts 279°
2026-05-04 21:02 51.41920 2.20191 23919 ft 387 kts 279°
2026-05-04 21:02 51.42416 2.16012 23476 ft 386 kts 280°
2026-05-04 21:02 51.42916 2.11798 23014 ft 384 kts 279°
2026-05-04 21:03 51.43410 2.07605 22584 ft 381 kts 279°
2026-05-04 21:03 51.43900 2.03449 22150 ft 379 kts 279°
2026-05-04 21:03 51.44387 1.99305 21702 ft 376 kts 279°
2026-05-04 21:03 51.44881 1.95201 21251 ft 374 kts 280°
2026-05-04 21:04 51.45388 1.91127 20801 ft 372 kts 280°
2026-05-04 21:04 51.45901 1.87065 20321 ft 370 kts 280°
2026-05-04 21:04 51.46400 1.83029 19858 ft 369 kts 280°
2026-05-04 21:04 51.46877 1.78998 19369 ft 367 kts 279°
2026-05-04 21:05 51.47337 1.74985 18885 ft 364 kts 279°
2026-05-04 21:05 51.47788 1.70979 18384 ft 363 kts 279°
2026-05-04 21:05 51.48235 1.67012 17842 ft 360 kts 279°
2026-05-04 21:05 51.48486 1.63044 17355 ft 357 kts 269°
2026-05-04 21:06 51.48248 1.59097 16871 ft 354 kts 258°
2026-05-04 21:06 51.47564 1.55368 16380 ft 352 kts 249°
2026-05-04 21:06 51.46709 1.51683 15907 ft 351 kts 249°
2026-05-04 21:06 51.45860 1.48020 15420 ft 350 kts 249°
2026-05-04 21:07 51.45015 1.44362 14933 ft 348 kts 249°
2026-05-04 21:07 51.44125 1.40750 14446 ft 346 kts 243°
2026-05-04 21:07 51.42845 1.37516 14088 ft 342 kts 230°
2026-05-04 21:07 51.41159 1.34817 14004 ft 342 kts 217°
2026-05-04 21:08 51.39274 1.32575 14023 ft 344 kts 216°
2026-05-04 21:08 51.37346 1.30293 13842 ft 346 kts 216°
2026-05-04 21:08 51.35380 1.27959 13015 ft 352 kts 216°
2026-05-04 21:08 51.33452 1.25671 12751 ft 341 kts 216°
2026-05-04 21:09 51.31560 1.23424 12490 ft 337 kts 216°
2026-05-04 21:09 51.29683 1.21199 12232 ft 335 kts 216°
2026-05-04 21:09 51.27809 1.18986 11976 ft 334 kts 216°
2026-05-04 21:09 51.25944 1.16794 11721 ft 332 kts 216°
2026-05-04 21:10 51.24111 1.14643 11475 ft 331 kts 216°
2026-05-04 21:10 51.22265 1.12440 11221 ft 330 kts 219°
2026-05-04 21:10 51.20800 1.09669 11034 ft 328 kts 240°
2026-05-04 21:10 51.19767 1.06421 11016 ft 328 kts 244°
2026-05-04 21:11 51.18756 1.03155 11022 ft 329 kts 244°
2026-05-04 21:11 51.17744 0.99879 11019 ft 329 kts 244°
2026-05-04 21:11 51.16731 0.96609 11015 ft 328 kts 244°
2026-05-04 21:11 51.15720 0.93357 11022 ft 328 kts 243°
2026-05-04 21:12 51.14701 0.90093 11021 ft 329 kts 243°
2026-05-04 21:12 51.13683 0.86837 11017 ft 329 kts 243°
2026-05-04 21:12 51.12666 0.83583 11014 ft 328 kts 243°
2026-05-04 21:12 51.11664 0.80367 11016 ft 328 kts 243°
2026-05-04 21:13 51.10645 0.77103 11014 ft 329 kts 243°
2026-05-04 21:13 51.09629 0.73853 11020 ft 329 kts 243°
2026-05-04 21:13 51.08606 0.70583 10876 ft 329 kts 243°
2026-05-04 21:13 51.07588 0.67337 10630 ft 327 kts 243°
2026-05-04 21:14 51.06574 0.64111 10387 ft 325 kts 243°
2026-05-04 21:14 51.05564 0.60903 10144 ft 324 kts 243°
2026-05-04 21:14 51.04564 0.57726 9936 ft 316 kts 243°
2026-05-04 21:14 51.03599 0.54671 9794 ft 303 kts 243°
2026-05-04 21:15 51.02673 0.51739 9668 ft 293 kts 243°
2026-05-04 21:15 51.01767 0.48860 9534 ft 289 kts 244°
2026-05-04 21:15 51.01182 0.45827 9243 ft 287 kts 260°
2026-05-04 21:15 51.00864 0.42708 8980 ft 287 kts 261°
2026-05-04 21:16 51.00565 0.39611 8701 ft 286 kts 261°
2026-05-04 21:16 51.00266 0.36505 8416 ft 284 kts 261°
2026-05-04 21:16 50.99973 0.33424 8135 ft 283 kts 263°
2026-05-04 21:16 50.99802 0.30325 7850 ft 281 kts 266°
2026-05-04 21:17 50.99663 0.27235 7517 ft 279 kts 266°
2026-05-04 21:17 50.99523 0.24161 7173 ft 278 kts 266°
2026-05-04 21:17 50.99375 0.21113 7021 ft 276 kts 266°
2026-05-04 21:17 50.99231 0.18078 7028 ft 277 kts 266°
2026-05-04 21:18 50.99085 0.15038 6914 ft 275 kts 266°
2026-05-04 21:18 50.98945 0.12008 6574 ft 274 kts 266°
2026-05-04 21:18 50.98803 0.08992 6226 ft 273 kts 266°
2026-05-04 21:18 50.98657 0.06034 5859 ft 272 kts 266°
2026-05-04 21:19 50.98508 0.03052 5512 ft 271 kts 266°
2026-05-04 21:19 50.98351 0.00076 5151 ft 270 kts 266°
2026-05-04 21:19 50.98191 -0.02897 4802 ft 270 kts 266°
2026-05-04 21:19 50.98041 -0.05885 4548 ft 271 kts 266°
2026-05-04 21:20 50.97893 -0.08872 4289 ft 271 kts 266°
2026-05-04 21:20 50.97747 -0.11850 4033 ft 270 kts 266°
2026-05-04 21:20 50.97745 -0.14809 3778 ft 268 kts 276°
2026-05-04 21:20 50.98013 -0.17733 3585 ft 268 kts 281°
2026-05-04 21:21 50.98332 -0.20645 3431 ft 268 kts 281°
2026-05-04 21:21 50.98657 -0.23561 3277 ft 267 kts 281°
2026-05-04 21:21 50.98983 -0.26469 3129 ft 267 kts 281°
2026-05-04 21:21 50.99303 -0.29365 3010 ft 267 kts 281°
2026-05-04 21:22 50.99730 -0.32177 3004 ft 266 kts 296°
2026-05-04 21:22 51.00830 -0.34420 3005 ft 251 kts 326°
2026-05-04 21:22 51.02303 -0.35690 3003 ft 234 kts 339°
2026-05-04 21:22 51.03795 -0.36648 3016 ft 230 kts 341°
2026-05-04 21:23 51.05268 -0.37567 3006 ft 220 kts 341°
2026-05-04 21:23 51.06644 -0.38421 2927 ft 207 kts 341°
2026-05-04 21:23 51.07946 -0.39242 2797 ft 196 kts 341°
2026-05-04 21:23 51.09191 -0.39963 2640 ft 186 kts 351°
2026-05-04 21:24 51.10454 -0.39902 2554 ft 181 kts 17°
2026-05-04 21:24 51.11558 -0.39009 2497 ft 177 kts 44°
2026-05-04 21:24 51.12244 -0.37407 2329 ft 176 kts 71°
2026-05-04 21:24 51.12515 -0.35525 2109 ft 172 kts 77°
2026-05-04 21:25 51.12768 -0.33737 1892 ft 158 kts 77°
2026-05-04 21:25 51.13003 -0.32061 1698 ft 154 kts 77°
2026-05-04 21:25 51.13236 -0.30399 1477 ft 152 kts 77°
2026-05-04 21:25 51.13465 -0.28757 1273 ft 153 kts 77°
2026-05-04 21:26 51.13691 -0.27132 1059 ft 152 kts 77°
2026-05-04 21:26 51.13923 -0.25464 839 ft 152 kts 76°
2026-05-04 21:26 51.14148 -0.23841 644 ft 153 kts 76°
2026-05-04 21:26 51.14378 -0.22188 431 ft 152 kts 76°
2026-05-04 21:27 51.14597 -0.20600 246 ft 139 kts 76°
2026-05-04 21:27 51.14793 -0.19225 208 ft 110 kts 77°
2026-05-04 21:27 51.14911 -0.18343 207 ft 41 kts 77°
2026-05-04 21:27 51.14960 -0.18045 210 ft 26 kts 68°
2026-05-04 21:28 51.15050 -0.17813 214 ft 17 kts 50°
2026-05-04 21:28 51.15129 -0.17774 215 ft 5 kts 334°
2026-05-04 21:28 51.15137 -0.17778 211 ft 3 kts 346°
2026-05-04 21:28 51.15181 -0.17780 205 ft 12 kts 358°
2026-05-04 21:29 51.15267 -0.17707 207 ft 18 kts 77°
2026-05-04 21:29 51.15291 -0.17524 210 ft 18 kts 78°
2026-05-04 21:29 51.15335 -0.17373 208 ft 13 kts 12°
2026-05-04 21:29 51.15434 -0.17403 205 ft 16 kts 349°
2026-05-04 21:30 51.15558 -0.17445 205 ft 20 kts 346°
2026-05-04 21:30 51.15686 -0.17491 209 ft 18 kts 347°
2026-05-04 21:30 51.15752 -0.17568 210 ft 13 kts 272°
2026-05-04 21:30 51.15732 -0.17728 214 ft 16 kts 258°
2026-05-04 21:31 51.15725 -0.18043 210 ft 14 kts 336°
2026-05-04 21:31 51.15829 -0.18078 210 ft 17 kts 348°
2026-05-04 21:31 51.15929 -0.18112 205 ft 9 kts 347°
2026-05-04 21:32 51.15968 -0.18098 205 ft 7 kts 49°
2026-05-04 21:32 51.15982 -0.18015 211 ft 3 kts 79°
2026-05-04 21:32 51.15986 -0.17980 207 ft 1 kts 81°
2026-05-04 21:32 51.15987 -0.17973 205 ft 0 kts 79°